Hourly Weather Golasowice

Today, 17 May, Monday

Time Temperature Precipitation Wind Pressure Humidity
00:00 +9°C° 0 mm 2 mps 729 mmHg 86%
01:00 +9°C° 0 mm 2 mps 729 mmHg 87%
02:00 +9°C° 0.2 mm 2 mps 729 mmHg 88%
03:00 +10°C° 0.2 mm 1 mps 729 mmHg 88%
04:00 +11°C° 0.2 mm 1 mps 728 mmHg 89%
05:00 +11°C° 0.5 mm 1 mps 728 mmHg 89%
06:00 +11°C° 0.5 mm 1 mps 729 mmHg 90%
07:00 +12°C° 0.5 mm 2 mps 729 mmHg 90%
08:00 +12°C° 0.9 mm 2 mps 729 mmHg 90%
09:00 +12°C° 0.9 mm 1 mps 729 mmHg 90%
10:00 +12°C° 0.9 mm 1 mps 729 mmHg 90%
11:00 +12°C° 0.4 mm 1 mps 729 mmHg 90%
12:00 +12°C° 0.4 mm 1 mps 729 mmHg 89%
13:00 +13°C° 0.4 mm 1 mps 729 mmHg 89%
14:00 +12°C° 0.5 mm 1 mps 729 mmHg 90%
15:00 +12°C° 0.5 mm 1 mps 729 mmHg 92%
16:00 +12°C° 0.5 mm 1 mps 729 mmHg 94%
17:00 +12°C° 0.7 mm 2 mps 729 mmHg 95%
18:00 +12°C° 0.7 mm 2 mps 729 mmHg 95%
19:00 +10°C° 0.7 mm 2 mps 729 mmHg 96%
20:00 +10°C° 0.7 mm 2 mps 729 mmHg 96%
21:00 +10°C° 0.7 mm 2 mps 729 mmHg 96%
22:00 +10°C° 0.7 mm 2 mps 730 mmHg 96%
23:00 +10°C° 0.5 mm 3 mps 730 mmHg 96%

Tomorrow, 18 May, Tuesday

Time Temperature Precipitation Wind Pressure Humidity
00:00 +10°C° 0.5 mm 3 mps 730 mmHg 95%
01:00 +9°C° 0.5 mm 3 mps 730 mmHg 95%
02:00 +9°C° 0.6 mm 3 mps 731 mmHg 94%
03:00 +9°C° 0.6 mm 3 mps 731 mmHg 94%
04:00 +9°C° 0.6 mm 3 mps 731 mmHg 93%
05:00 +9°C° 0.1 mm 3 mps 732 mmHg 91%
06:00 +10°C° 0.1 mm 4 mps 732 mmHg 89%
07:00 +10°C° 0.1 mm 4 mps 732 mmHg 87%
08:00 +11°C° 0.2 mm 4 mps 733 mmHg 83%
09:00 +12°C° 0.2 mm 4 mps 733 mmHg 79%
10:00 +12°C° 0.2 mm 5 mps 733 mmHg 75%
11:00 +13°C° 0.3 mm 5 mps 733 mmHg 73%
12:00 +13°C° 0.3 mm 5 mps 733 mmHg 70%
13:00 +14°C° 0.3 mm 5 mps 733 mmHg 67%
14:00 +14°C° 0.1 mm 5 mps 733 mmHg 65%
15:00 +15°C° 0.1 mm 4 mps 733 mmHg 64%
16:00 +15°C° 0.1 mm 4 mps 733 mmHg 62%
17:00 +14°C° 0.2 mm 3 mps 733 mmHg 69%
18:00 +13°C° 0.2 mm 2 mps 733 mmHg 76%
19:00 +12°C° 0.2 mm 2 mps 734 mmHg 84%
20:00 +10°C° 0 mm 2 mps 734 mmHg 86%
21:00 +9°C° 0 mm 2 mps 734 mmHg 88%
22:00 +8°C° 0 mm 2 mps 734 mmHg 90%
23:00 +8°C° 0.1 mm 2 mps 734 mmHg 91%

Day after tomorrow, 19 May, Wednesday

Time Temperature Precipitation Wind Pressure Humidity
00:00 +9°C° 0.1 mm 2 mps 735 mmHg 92%
01:00 +9°C° 0.1 mm 2 mps 735 mmHg 93%
02:00 +8°C° 0 mm 2 mps 735 mmHg 94%
03:00 +9°C° 0 mm 1 mps 735 mmHg 94%
04:00 +9°C° 0 mm 1 mps 735 mmHg 94%
05:00 +9°C° 0 mm 1 mps 735 mmHg 91%
06:00 +10°C° 0 mm 1 mps 735 mmHg 88%
07:00 +11°C° 0 mm 1 mps 736 mmHg 85%
08:00 +10°C° 0.2 mm 2 mps 736 mmHg 82%
09:00 +12°C° 0.2 mm 2 mps 736 mmHg 80%
10:00 +11°C° 0.2 mm 3 mps 736 mmHg 77%
11:00 +12°C° 0.4 mm 3 mps 736 mmHg 76%
12:00 +12°C° 0.4 mm 3 mps 736 mmHg 75%
13:00 +12°C° 0.4 mm 3 mps 736 mmHg 73%
14:00 +12°C° 0.4 mm 3 mps 736 mmHg 75%
15:00 +12°C° 0.4 mm 3 mps 736 mmHg 76%
16:00 +12°C° 0.4 mm 3 mps 736 mmHg 78%
17:00 +11°C° 0.2 mm 3 mps 736 mmHg 81%
18:00 +10°C° 0.2 mm 3 mps 736 mmHg 84%
19:00 +9°C° 0.2 mm 3 mps 736 mmHg 87%
20:00 +9°C° 0 mm 3 mps 736 mmHg 89%
21:00 +8°C° 0 mm 3 mps 736 mmHg 91%
22:00 +8°C° 0 mm 3 mps 736 mmHg 93%
23:00 +8°C° 0 mm 3 mps 736 mmHg 92%

20 May, Thursday

Time Temperature Precipitation Wind Pressure Humidity
00:00 +8°C° 0 mm 3 mps 736 mmHg 91%
01:00 +8°C° 0 mm 3 mps 736 mmHg 91%
02:00 +7°C° 0 mm 3 mps 736 mmHg 91%
03:00 +7°C° 0 mm 3 mps 736 mmHg 91%
04:00 +7°C° 0 mm 3 mps 736 mmHg 91%
05:00 +7°C° 0.2 mm 3 mps 737 mmHg 91%
06:00 +7°C° 0.2 mm 4 mps 737 mmHg 91%
07:00 +7°C° 0.2 mm 4 mps 737 mmHg 91%
08:00 +7°C° 0.9 mm 4 mps 737 mmHg 87%
09:00 +8°C° 0.9 mm 4 mps 738 mmHg 82%
10:00 +10°C° 0.9 mm 3 mps 738 mmHg 78%
11:00 +11°C° 0.1 mm 4 mps 738 mmHg 72%
12:00 +12°C° 0.1 mm 4 mps 738 mmHg 67%
13:00 +14°C° 0.1 mm 5 mps 737 mmHg 62%
14:00 +13°C° 0.5 mm 5 mps 737 mmHg 67%
15:00 +13°C° 0.5 mm 5 mps 738 mmHg 72%
16:00 +13°C° 0.5 mm 5 mps 738 mmHg 77%
17:00 +12°C° 0.7 mm 5 mps 738 mmHg 81%
18:00 +11°C° 0.7 mm 4 mps 738 mmHg 86%
19:00 +10°C° 0.7 mm 3 mps 738 mmHg 90%
20:00 +9°C° 0.3 mm 3 mps 739 mmHg 91%
21:00 +8°C° 0.3 mm 3 mps 739 mmHg 93%
22:00 +7°C° 0.3 mm 2 mps 740 mmHg 94%
23:00 +7°C° 0 mm 2 mps 740 mmHg 95%

21 May, Friday

Time Temperature Precipitation Wind Pressure Humidity
00:00 +7°C° 0 mm 2 mps 740 mmHg 95%
01:00 +6°C° 0 mm 2 mps 740 mmHg 95%
02:00 +6°C° 0 mm 2 mps 741 mmHg 95%
03:00 +6°C° 0 mm 2 mps 741 mmHg 94%
04:00 +6°C° 0 mm 1 mps 741 mmHg 94%
05:00 +6°C° 0 mm 2 mps 741 mmHg 89%
06:00 +7°C° 0 mm 2 mps 741 mmHg 84%
07:00 +9°C° 0 mm 2 mps 741 mmHg 80%
08:00 +10°C° 0.1 mm 2 mps 741 mmHg 74%
09:00 +12°C° 0.1 mm 2 mps 741 mmHg 67%
10:00 +12°C° 0.1 mm 3 mps 741 mmHg 61%
11:00 +13°C° 0 mm 3 mps 740 mmHg 58%
12:00 +13°C° 0 mm 3 mps 740 mmHg 56%
13:00 +15°C° 0 mm 2 mps 740 mmHg 53%
14:00 +15°C° 0 mm 2 mps 739 mmHg 53%
15:00 +16°C° 0 mm 2 mps 739 mmHg 53%
16:00 +16°C° 0 mm 2 mps 738 mmHg 53%
17:00 +15°C° 0 mm 2 mps 738 mmHg 60%
18:00 +14°C° 0 mm 2 mps 738 mmHg 67%
19:00 +12°C° 0 mm 2 mps 737 mmHg 74%
20:00 +12°C° 0 mm 2 mps 737 mmHg 75%
21:00 +10°C° 0 mm 2 mps 737 mmHg 76%
22:00 +9°C° 0 mm 2 mps 737 mmHg 76%
23:00 +9°C° 0 mm 2 mps 737 mmHg 76%

22 May, Saturday

Time Temperature Precipitation Wind Pressure Humidity
00:00 +9°C° 0 mm 2 mps 737 mmHg 76%
01:00 +9°C° 0 mm 2 mps 736 mmHg 75%
02:00 +8°C° 0 mm 2 mps 736 mmHg 76%
03:00 +8°C° 0 mm 2 mps 735 mmHg 77%
04:00 +8°C° 0 mm 3 mps 735 mmHg 77%
05:00 +9°C° 0 mm 3 mps 735 mmHg 73%
06:00 +11°C° 0 mm 3 mps 735 mmHg 68%
07:00 +13°C° 0 mm 3 mps 735 mmHg 63%
08:00 +15°C° 0 mm 4 mps 735 mmHg 59%
09:00 +17°C° 0 mm 4 mps 735 mmHg 55%
10:00 +19°C° 0 mm 5 mps 735 mmHg 50%
11:00 +19°C° 0 mm 5 mps 735 mmHg 51%
12:00 +19°C° 0 mm 5 mps 735 mmHg 51%
13:00 +20°C° 0 mm 5 mps 735 mmHg 51%
14:00 +19°C° 0.1 mm 5 mps 735 mmHg 55%
15:00 +19°C° 0.1 mm 4 mps 734 mmHg 59%
16:00 +18°C° 0.1 mm 4 mps 734 mmHg 63%
17:00 +17°C° 0.5 mm 3 mps 734 mmHg 70%
18:00 +14°C° 0.5 mm 3 mps 734 mmHg 78%
19:00 +13°C° 0.5 mm 3 mps 734 mmHg 85%
20:00 +12°C° 1.4 mm 3 mps 734 mmHg 89%
21:00 +12°C° 1.4 mm 2 mps 735 mmHg 92%
22:00 +12°C° 1.4 mm 2 mps 735 mmHg 96%
23:00 +10°C° 2.8 mm 2 mps 735 mmHg 96%
Show more